Weather History for Park Rapids, MN

Change the Weather History Date:

Wednesday, December 1, 2010

  Actual Average Record
Temperature  
Mean Temperature 8 °F -  
Max Temperature 16 °F 26 °F 58 °F (1962)
Min Temperature 0 °F 9 °F -18 °F (1978)
Degree Days  
Heating Degree Days 57    
Moisture  
Dew Point 3 °F    
Average Humidity 79    
Maximum Humidity 88    
Minimum Humidity 68    
Precipitation  
Precipitation 0.00 in - - ()
Sea Level Pressure  
Sea Level Pressure 30.01 in    
Wind  
Wind Speed 11 mph (NW)    
Max Wind Speed 15 mph    
Max Gust Speed -    
Visibility 8 miles    
Events Snow    
Averages and records for this station are not official NWS values.
T = Trace of Precipitation, MM = Missing Value Source: NWS Daily Summary

Daily Weather History Graph

Daily Weather History Graph

Search for Another Location

Airport:

Trip Planner

Search our weather history database for the weather conditions in past years. The results will help you decide how hot, cold, wet, or windy it might be!

Date:

Astronomy

Dec. 01, 2010 Rise Set
Actual Time 7:44 AM CST 4:33 PM CST
Civil Twilight 7:10 AM CST 5:08 PM CST
Nautical Twilight 6:32 AM CST 5:46 PM CST
Astronomical Twilight 5:55 AM CST 6:22 PM CST
Moon 2:59 AM CST (12/1) 1:46 PM CST (12/1)
Length of Visible Light 9h 57m
Length of Day
8h 48m
Waning Crescent, 19% of the Moon is Illuminated
Dec 1
Waning Crescent
Dec 5
New
Dec 13
First Quarter
Dec 21
Full
Dec 27
Last Quarter

Hourly Weather History & Observations

Time (CST) Temp. Windchill Dew Point Humidity Pressure Visibility Wind Dir Wind Speed Gust Speed Precip Events Conditions
12:53 AM 10.0 °F -5.9 °F 3.9 °F 76% 29.94 in 6.0 mi NW 13.8 mph - 0.00 in Snow Light Snow
1:12 AM 10.4 °F -4.8 °F 3.2 °F 73% 29.84 in 5.0 mi NW 12.7 mph - 0.00 in Snow Light Snow
1:53 AM 10.0 °F -4.5 °F 5.0 °F 80% 29.95 in 7.0 mi NW 11.5 mph - 0.00 in   Overcast
2:10 AM 10.4 °F -6.0 °F 5.0 °F 79% 29.86 in 6.0 mi NW 15.0 mph - N/A   Haze
2:53 AM 10.0 °F -5.2 °F 5.0 °F 80% 29.97 in 4.0 mi NW 12.7 mph - 0.00 in Snow Light Snow
3:53 AM 10.0 °F -5.9 °F 5.0 °F 80% 29.99 in 4.0 mi NW 13.8 mph - 0.00 in Snow Light Snow
4:12 AM 10.4 °F -4.8 °F 5.0 °F 79% 29.89 in 4.0 mi NW 12.7 mph - 0.00 in Snow Light Snow
4:53 AM 10.0 °F -5.2 °F 5.0 °F 80% 30.00 in 7.0 mi NW 12.7 mph - 0.00 in   Overcast
5:53 AM 10.0 °F -5.9 °F 5.0 °F 80% 30.01 in 5.0 mi NNW 13.8 mph - 0.00 in Snow Light Snow
6:12 AM 10.4 °F -5.4 °F 5.0 °F 79% 29.92 in 5.0 mi NW 13.8 mph - 0.00 in Snow Light Snow
6:53 AM 8.6 °F -7.0 °F 3.2 °F 79% 29.93 in 7.0 mi NW 12.7 mph - N/A   Overcast
7:23 AM 6.8 °F -6.9 °F 3.2 °F 85% 29.93 in 9.0 mi NW 9.2 mph - N/A   Overcast
7:32 AM 6.8 °F -7.8 °F 3.2 °F 85% 29.93 in 10.0 mi NW 10.4 mph - N/A   Overcast
7:53 AM 5.0 °F -9.1 °F 1.0 °F 84% 30.03 in 10.0 mi NW 9.2 mph - N/A   Mostly Cloudy
8:00 AM 3.2 °F -11.3 °F -0.4 °F 85% 29.93 in 10.0 mi WNW 9.2 mph - N/A   Partly Cloudy
8:53 AM 5.0 °F -11.6 °F 1.0 °F 84% 30.04 in 10.0 mi WNW 12.7 mph - N/A   Clear
9:53 AM 6.8 °F -6.9 °F 1.4 °F 79% 29.94 in 10.0 mi NW 9.2 mph - N/A   Clear
10:53 AM 12.0 °F -0.4 °F 5.0 °F 73% 30.05 in 10.0 mi West 9.2 mph - N/A   Clear
11:53 AM 12.9 °F -1.6 °F 5.0 °F 71% 30.05 in 10.0 mi West 12.7 mph - N/A   Clear
12:53 PM 12.9 °F -0.9 °F 5.0 °F 71% 30.05 in 10.0 mi NW 11.5 mph - N/A   Clear
1:53 PM 15.1 °F 2.5 °F 6.1 °F 68% 30.04 in 10.0 mi WNW 10.4 mph - N/A   Clear
2:53 PM 16.0 °F 3.6 °F 8.1 °F 71% 30.05 in 10.0 mi WNW 10.4 mph - N/A   Clear
3:53 PM 14.0 °F 1.2 °F 7.0 °F 74% 30.07 in 10.0 mi WNW 10.4 mph - N/A   Clear
4:53 PM 9.0 °F -4.2 °F 3.0 °F 77% 30.08 in 10.0 mi WNW 9.2 mph - N/A   Clear
5:53 PM 6.1 °F -7.8 °F 1.0 °F 80% 30.10 in 10.0 mi WNW 9.2 mph - N/A   Clear
6:53 PM 3.0 °F -12.5 °F -0.0 °F 87% 30.12 in 10.0 mi WNW 10.4 mph - N/A   Clear
7:53 PM 1.9 °F -13.8 °F -2.0 °F 83% 30.12 in 10.0 mi WNW 10.4 mph - N/A   Clear
8:53 PM 1.4 °F - -4.0 °F 78% 30.01 in 10.0 mi Calm Calm - N/A   Mostly Cloudy
9:53 PM -0.0 °F -7.9 °F -2.9 °F 88% 30.12 in 10.0 mi WNW 3.5 mph - N/A   Scattered Clouds
10:53 PM -0.0 °F - -5.1 °F 79% 30.12 in 10.0 mi Calm Calm - N/A   Clear
11:53 PM -0.0 °F -7.9 °F -5.1 °F 79% 30.12 in 10.0 mi NW 3.5 mph - N/A   Clear